Wind_Speed
13 14 14 14 15 15 15 17 10 20 21 22 17 17 20 20 19 14 13 14 15 15 16 15 15 13 13 14 14 13 12 14 13 15 18 23 29 30 29 30 31 32 36 38
16 16 14 17 21 21 20 20 20 24 25 28 26 24 20 17 14 14 19 19 19 19 19 18 16 15 16 16 16 17 16 14 15 14 16 20 23 28 28 31 33 34 34 37
13 11 11 13 16 18 20 20 17 20 22 26 25 20 22 24 21 21 22 23 22 20 20 19 19 17 18 18 18 17 18 17 16 16 17 21 24 27 30 32 33 34 35 37
9 10 11 9 7 10 13 16 17 20 21 24 24 29 28 24 24 24 23 21 22 20 18 19 21 22 22 21 19 17 16 18 18 18 18 20 26 28 30 32 34 35 36 36
5 10 16 20 13 12 14 19 12 15 18 22 27 24 25 25 22 22 20 14 13 19 24 23 23 23 24 23 21 19 18 16 19 18 19 20 23 27 29 32 34 35 37 37
5 8 9 1 5 2 6 15 13 6 12 15 19 13 11 14 19 19 14 15 20 22 20 25 25 23 24 25 24 23 19 18 20 21 21 22 24 25 28 30 33 36 38 36
13 11 10 10 11 13 11 8 10 15 23 28 20 21 34 34 37 34 32 29 28 29 27 24 25 25 28 25 26 23 21 23 24 24 23 22 24 28 30 32 33 36 35 37
7 8 13 4 6 14 15 24 27 37 38 37 37 39 39 34 32 32 33 34 34 33 31 29 25 25 28 29 25 25 23 25 25 26 26 24 25 29 33 34 37 39 39 40
12 10 17 27 29 35 36 36 36 36 34 33 36 38 41 39 35 33 33 35 34 32 29 28 28 27 27 32 25 28 32 29 26 25 29 27 24 29 35 36 38 41 43 44
17 17 20 26 35 36 37 35 33 33 34 35 37 39 42 40 36 35 33 34 33 30 30 30 30 30 30 29 31 29 35 32 27 26 28 28 26 29 36 39 41 44 48 48
22 25 31 29 26 28 32 35 35 37 36 37 37 39 38 38 36 35 34 32 31 31 32 35 34 32 31 32 34 39 37 35 27 28 28 29 29 30 37 40 42 44 48 52
17 28 27 32 38 36 34 35 34 33 35 35 37 40 40 39 35 34 33 32 33 35 38 40 37 35 35 33 31 33 36 36 30 28 31 31 32 33 36 37 41 41 46 49
25 33 34 36 36 35 32 28 33 33 31 35 36 35 35 37 35 35 36 37 38 39 40 39 41 45 41 38 34 30 34 34 30 29 34 36 37 38 37 32 36 36 40 39
29 29 29 28 26 30 31 32 31 33 32 33 34 33 32 32 33 35 36 36 37 39 42 45 46 41 35 35 35 40 36 32 28 30 37 37 38 39 38 41 39 33 29 32
21 20 20 24 26 29 29 29 29 30 31 32 31 31 32 33 32 34 35 34 34 37 37 30 27 28 25 32 36 36 33 31 28 30 36 37 37 38 38 40 39 42 40 35
19 19 21 21 25 26 26 27 28 32 31 32 32 28 28 28 27 27 26 25 24 25 23 20 21 20 22 23 23 25 28 28 28 32 35 35 37 39 39 41 47 49 48 47
16 19 21 23 24 25 26 27 27 30 30 25 24 23 21 20 18 17 18 16 16 16 15 13 12 11 11 14 17 21 22 21 29 33 33 36 37 39 42 45 48 50 48 43
13 15 17 22 26 27 27 27 28 26 20 20 19 17 16 15 15 15 13 11 9 7 5 5 6 6 8 12 14 16 18 26 30 31 34 37 39 42 46 48 49 47 46 43
11 14 17 20 22 23 23 24 23 14 15 16 14 13 13 13 13 12 10 9 11 12 11 6 2 5 8 10 14 21 25 28 31 33 37 40 42 45 49 49 46 44 44 43
11 13 16 20 21 20 22 20 12 9 12 11 10 12 13 13 13 14 15 16 14 13 9 8 7 7 9 12 16 21 26 30 33 36 39 41 45 46 45 45 44 44 42 38
11 15 18 22 23 21 19 15 6 4 9 8 10 13 14 14 17 19 20 19 17 15 14 15 15 14 13 15 20 24 27 30 32 36 39 41 41 39 39 40 41 41 39 36
12 15 16 18 20 21 18 12 5 2 5 8 12 16 19 20 21 22 23 22 21 22 23 23 21 19 18 20 22 25 28 30 32 33 34 36 38 38 38 38 38 38 36 35
11 12 13 14 15 16 16 13 6 2 6 10 12 12 13 14 14 14 18 16 15 15 17 18 16 17 16 19 22 24 24 25 28 30 31 32 33 34 36 36 36 36 34 32
11 10 11 11 11 12 13 12 10 7 5 7 8 6 7 10 13 15 15 13 13 14 15 14 13 12 14 16 17 19 20 22 24 26 28 30 32 32 32 32 32 31 31 30
10 10 9 9 8 8 8 8 7 7 5 4 5 4 4 5 9 12 11 12 12 15 16 14 14 14 17 18 19 19 20 21 23 26 28 29 29 29 28 28 29 29 29 28
10 8 7 7 7 7 6 5 5 6 6 6 3 5 7 8 10 10 11 12 13 15 17 15 15 15 16 18 19 21 22 23 24 24 25 26 26 26 26 24 24 25 25 26
12 9 7 7 6 6 5 5 4 3 4 4 6 8 8 8 8 7 9 10 11 13 15 15 13 14 16 18 19 20 21 21 21 21 21 21 21 20 20 19 21 23 24 25
Wind_Direction
292 298 297 287 278 267 251 242 259 270 275 276 283 291 302 296 290 287 291 302 311 315 320 320 323 323 323 326 325 316 308 293 274 263 257 250 243 240 242 230 234 234 225 217
289 283 280 276 267 264 265 260 258 261 270 277 286 287 279 283 284 284 290 293 299 304 307 306 313 315 314 316 321 319 314 300 287 267 255 258 251 239 232 229 229 229 222 218
279 288 303 283 265 263 265 263 255 262 268 276 283 285 283 286 286 282 278 285 292 295 298 297 300 306 307 305 313 315 312 308 291 279 259 257 251 244 236 232 226 221 216 211
280 297 266 253 314 292 288 274 258 257 267 277 279 282 284 287 282 278 274 275 283 288 292 293 291 294 297 300 300 306 308 306 303 286 265 257 249 241 236 228 220 217 211 206
257 259 276 285 277 265 245 272 299 293 283 286 292 305 292 284 283 279 273 273 277 290 292 293 290 289 292 292 290 293 299 303 300 296 278 257 256 246 236 229 222 215 211 210
250 272 277 315 322 311 325 287 272 269 314 312 316 301 298 334 325 313 274 282 291 296 286 290 288 287 290 283 281 284 289 297 299 293 284 266 253 254 240 230 223 215 210 209
249 257 263 283 279 274 260 259 323 321 316 307 297 294 295 297 293 289 279 281 290 294 287 275 281 283 285 283 275 279 281 291 294 293 285 273 254 244 242 229 219 214 210 200
238 255 268 308 266 238 270 301 306 304 301 295 293 293 292 291 288 286 279 278 281 283 281 276 273 276 277 278 280 278 275 281 283 288 281 274 254 242 235 225 215 210 203 196
280 272 300 300 296 287 286 287 291 293 295 294 291 290 291 291 290 285 282 281 281 278 273 269 266 266 271 276 279 277 277 275 271 274 277 271 253 239 230 220 213 207 201 193
271 270 272 284 289 290 290 290 292 289 290 291 289 289 289 287 284 282 281 281 280 276 271 269 265 264 266 270 279 269 279 274 266 263 267 262 247 236 231 221 210 205 200 196
274 278 281 278 285 297 298 294 294 293 291 288 285 284 287 287 282 279 279 279 277 272 270 270 269 266 263 265 270 272 271 271 265 258 252 253 241 232 228 226 222 212 208 202
271 282 291 289 295 297 297 294 293 295 293 289 287 285 283 283 282 280 280 278 276 274 274 273 271 267 266 259 257 263 265 265 259 252 241 236 230 220 222 225 218 215 211 204
271 283 289 289 293 295 298 301 298 296 294 297 294 290 285 282 282 280 280 280 278 278 277 273 271 270 263 247 246 248 261 263 255 247 233 224 217 212 204 203 210 208 212 202
282 287 286 290 300 300 300 300 300 297 295 294 296 291 289 290 286 284 283 283 283 280 278 282 281 274 251 232 238 252 260 252 247 239 227 217 212 207 204 196 181 175 186 185
295 300 294 294 297 299 301 303 300 298 299 300 303 297 297 295 290 289 291 292 290 286 285 277 275 277 260 245 239 245 241 231 228 227 220 214 207 201 196 189 177 166 166 168
307 306 304 304 303 304 306 306 304 303 308 308 308 309 304 306 305 305 300 297 293 292 290 288 276 268 250 238 230 227 224 221 218 211 205 200 197 190 184 181 171 165 165 165
314 317 316 311 311 309 305 305 304 311 315 315 315 320 320 321 319 319 319 317 312 302 299 293 275 253 231 219 213 208 208 210 207 199 193 190 182 176 174 169 163 161 163 161
309 307 311 311 310 311 310 311 317 319 321 326 328 337 341 346 344 342 339 332 331 336 346 323 292 253 221 203 199 196 198 193 188 182 178 175 174 171 163 161 159 159 157 158
322 316 320 321 319 314 312 312 323 327 332 338 350 356 358 2 2 2 360 26 39 44 43 30 91 164 172 180 184 173 171 169 168 164 166 163 156 155 159 161 160 159 156 158
325 321 326 333 338 335 328 328 324 332 344 354 15 25 28 31 46 55 56 57 58 62 49 59 76 110 134 155 162 159 160 155 151 153 154 155 157 158 159 159 157 155 156 158
324 326 341 345 349 350 346 343 325 339 3 19 48 56 59 60 63 67 66 65 62 63 73 80 92 105 119 131 140 146 149 148 147 147 151 152 153 152 152 154 153 154 155 157
315 322 336 345 353 356 359 360 3 99 56 82 94 98 91 83 77 76 78 80 81 75 73 77 82 94 108 117 125 131 135 138 141 144 144 146 147 148 150 152 154 157 158 160
308 312 326 344 353 358 8 16 28 104 116 120 113 98 85 81 85 85 80 75 77 78 81 81 82 81 88 102 114 120 124 129 135 138 140 144 147 151 153 155 157 157 160 162
309 301 316 332 343 355 8 21 38 61 100 130 126 114 103 94 86 79 75 73 76 81 81 79 82 95 109 114 120 126 131 137 142 145 148 150 151 151 152 155 158 161 162 162
306 296 307 324 334 333 351 1 21 39 55 83 99 112 126 114 100 88 69 76 76 77 80 86 91 100 108 116 120 123 128 134 139 145 147 149 150 151 153 157 159 161 162 165
291 285 285 300 315 317 315 331 357 16 38 48 111 131 125 121 106 92 82 85 79 76 76 87 95 106 115 119 123 125 128 133 137 140 145 149 149 149 151 153 158 161 163 164
279 280 273 283 298 306 301 283 291 325 12 51 124 139 142 140 126 112 100 91 92 87 83 86 99 106 118 124 129 133 135 136 138 140 141 143 145 147 149 153 157 161 161 163
Height
1444 1441 1438 1435 1433 1429 1428 1429 1432 1409 1405 1400 1405 1408 1407 1410 1409 1408 1406 1404 1402 1401 1400 1398 1397 1395 1394 1391 1388 1385 1384 1383 1382 1382 1383 1384 1385 1387 1390 1393 1398 1402 1406 1410
1454 1441 1436 1431 1424 1421 1420 1418 1416 1411 1407 1397 1403 1406 1405 1405 1405 1404 1403 1401 1400 1398 1396 1395 1394 1392 1390 1388 1385 1382 1380 1378 1377 1377 1377 1378 1379 1380 1382 1385 1390 1394 1399 1405
1443 1434 1434 1434 1418 1414 1410 1407 1407 1406 1400 1394 1394 1398 1398 1399 1399 1399 1399 1397 1396 1395 1392 1390 1389 1387 1386 1384 1382 1379 1375 1374 1373 1373 1372 1372 1373 1375 1377 1379 1383 1387 1392 1398
1445 1442 1439 1414 1413 1413 1411 1404 1399 1397 1395 1391 1392 1392 1391 1392 1392 1392 1393 1392 1391 1390 1389 1387 1386 1383 1380 1379 1378 1375 1373 1370 1369 1368 1367 1367 1367 1369 1372 1375 1377 1382 1387 1393
1444 1430 1418 1411 1404 1403 1401 1394 1395 1395 1392 1388 1386 1387 1384 1385 1385 1386 1387 1388 1388 1387 1384 1382 1380 1379 1376 1374 1373 1371 1370 1368 1365 1364 1362 1362 1363 1364 1367 1370 1374 1376 1383 1388
1436 1434 1422 1401 1404 1404 1404 1398 1390 1393 1391 1389 1388 1383 1378 1382 1383 1383 1383 1383 1383 1383 1380 1375 1373 1373 1371 1368 1367 1366 1365 1363 1361 1359 1357 1357 1358 1360 1363 1366 1370 1375 1379 1385
1429 1427 1411 1401 1403 1404 1410 1396 1389 1393 1394 1391 1387 1386 1382 1385 1382 1380 1377 1375 1374 1373 1371 1370 1368 1365 1362 1361 1359 1360 1358 1356 1355 1354 1351 1352 1354 1355 1357 1361 1365 1371 1377 1381
1427 1425 1417 1401 1400 1403 1396 1393 1394 1393 1392 1387 1383 1379 1376 1376 1373 1370 1368 1366 1365 1364 1361 1359 1359 1357 1354 1351 1352 1350 1349 1348 1349 1349 1344 1346 1349 1351 1352 1356 1360 1364 1371 1378
1421 1407 1398 1401 1401 1400 1399 1395 1393 1390 1386 1382 1376 1370 1365 1363 1363 1360 1357 1354 1352 1351 1349 1349 1348 1346 1344 1341 1344 1341 1340 1341 1342 1341 1338 1339 1342 1345 1347 1350 1354 1358 1365 1368
1417 1405 1403 1399 1397 1395 1392 1389 1385 1382 1377 1374 1368 1362 1354 1352 1352 1348 1346 1343 1342 1340 1338 1337 1336 1336 1335 1334 1334 1332 1329 1331 1333 1333 1331 1331 1333 1338 1341 1342 1346 1351 1356 1362
1406 1401 1396 1393 1389 1387 1384 1380 1377 1373 1369 1364 1358 1352 1347 1342 1341 1338 1336 1334 1332 1330 1327 1324 1325 1325 1325 1325 1323 1320 1319 1318 1322 1322 1322 1322 1326 1330 1334 1338 1341 1343 1351 1357
1392 1392 1391 1384 1382 1379 1376 1371 1368 1364 1357 1355 1350 1343 1338 1332 1331 1327 1325 1324 1321 1318 1314 1310 1311 1311 1311 1313 1313 1309 1306 1306 1310 1313 1313 1315 1320 1323 1329 1334 1337 1340 1346 1354
1387 1386 1383 1377 1374 1370 1366 1363 1360 1356 1351 1344 1340 1335 1329 1323 1320 1317 1315 1312 1308 1304 1301 1298 1295 1294 1295 1297 1299 1298 1296 1296 1298 1302 1306 1308 1313 1317 1320 1331 1337 1336 1344 1356
1383 1380 1373 1371 1368 1365 1362 1356 1351 1347 1342 1337 1331 1325 1320 1315 1311 1307 1302 1299 1295 1291 1286 1282 1277 1274 1277 1280 1282 1285 1287 1287 1290 1294 1297 1301 1305 1311 1317 1324 1325 1331 1349 1356
1376 1375 1372 1368 1364 1359 1355 1350 1345 1339 1333 1327 1322 1316 1311 1305 1300 1295 1291 1287 1282 1277 1272 1269 1265 1262 1263 1266 1269 1273 1276 1278 1281 1287 1292 1297 1302 1309 1314 1322 1322 1328 1344 1355
1372 1371 1367 1363 1359 1355 1350 1343 1338 1331 1326 1319 1313 1308 1303 1297 1291 1286 1281 1277 1272 1266 1262 1259 1257 1257 1257 1258 1261 1265 1269 1271 1275 1281 1287 1294 1300 1305 1310 1317 1321 1327 1338 1346
1369 1365 1363 1359 1354 1349 1343 1338 1333 1326 1320 1314 1308 1303 1298 1293 1288 1282 1276 1271 1266 1262 1259 1257 1256 1255 1255 1256 1258 1261 1264 1268 1273 1278 1282 1290 1296 1303 1307 1317 1323 1328 1338 1347
1368 1364 1361 1355 1348 1343 1337 1332 1327 1322 1316 1311 1306 1301 1296 1291 1285 1280 1275 1270 1267 1263 1260 1257 1256 1257 1256 1255 1256 1259 1262 1269 1274 1276 1281 1289 1295 1301 1308 1317 1324 1333 1340 1351
1364 1361 1357 1351 1345 1340 1334 1328 1323 1319 1315 1311 1306 1301 1297 1292 1287 1282 1278 1274 1270 1267 1266 1263 1262 1259 1258 1260 1260 1262 1267 1271 1274 1278 1283 1291 1298 1304 1310 1318 1328 1337 1346 1355
1361 1359 1354 1348 1342 1336 1330 1325 1321 1318 1316 1312 1308 1303 1299 1294 1290 1286 1282 1279 1277 1275 1273 1271 1269 1267 1266 1265 1264 1265 1270 1276 1277 1283 1291 1296 1299 1306 1316 1324 1332 1340 1349 1359
1358 1355 1351 1345 1340 1334 1329 1323 1320 1319 1317 1313 1310 1306 1303 1300 1296 1293 1289 1287 1285 1283 1281 1279 1277 1276 1275 1275 1276 1278 1280 1283 1287 1293 1297 1302 1307 1315 1322 1331 1338 1346 1354 1360
1356 1353 1349 1345 1340 1335 1329 1324 1321 1320 1319 1316 1313 1311 1309 1306 1303 1300 1297 1296 1295 1293 1291 1289 1287 1286 1285 1285 1286 1288 1290 1292 1295 1302 1306 1311 1317 1323 1330 1336 1342 1351 1358 1365
1353 1351 1348 1345 1341 1337 1332 1327 1323 1322 1321 1319 1318 1317 1314 1312 1309 1308 1305 1305 1303 1301 1298 1297 1297 1296 1296 1296 1297 1297 1299 1303 1307 1311 1315 1320 1326 1331 1337 1343 1349 1355 1361 1367
1351 1350 1347 1344 1341 1339 1335 1331 1328 1325 1324 1323 1322 1321 1319 1317 1316 1314 1312 1311 1309 1307 1305 1304 1304 1303 1303 1303 1305 1307 1309 1313 1315 1319 1323 1328 1333 1337 1343 1348 1353 1359 1364 1369
1350 1348 1346 1344 1342 1339 1337 1334 1331 1329 1327 1325 1324 1323 1322 1322 1321 1320 1319 1317 1316 1313 1311 1311 1311 1310 1310 1311 1312 1315 1317 1320 1323 1327 1331 1335 1339 1343 1348 1353 1358 1362 1366 1371
1347 1346 1345 1343 1341 1339 1337 1335 1334 1332 1330 1328 1326 1326 1325 1325 1324 1324 1323 1322 1320 1319 1317 1317 1317 1318 1318 1319 1321 1323 1326 1329 1332 1335 1338 1342 1345 1348 1353 1357 1361 1365 1369 1373
1344 1343 1343 1342 1340 1338 1336 1335 1334 1333 1332 1330 1329 1328 1328 1328 1328 1328 1328 1327 1326 1325 1324 1324 1324 1325 1326 1326 1328 1330 1333 1335 1338 1341 1344 1346 1350 1353 1356 1361 1364 1369 1373 1377